Tracking 20040 objects as of 18-Nov-2019
Live streaming from Space Station
objects crossing your sky now

COSMOS 1486

Track COSMOS 1486 now!
10-day predictions
COSMOS 1486 is classified as:


NORAD ID: 14240
Int'l Code: 1983-079A
Perigee: 775.2 km
Apogee: 796.5 km
Inclination: 74.1 °
Period: 100.4 minutes
Semi major axis: 7156 km
RCS: 2.07 m2 (large)
Launch date: August 3, 1983
Source: Commonwealth of Independent States (former USSR) (CIS)
Launch site: PLESETSK MISSILE AND SPACE COMPLEX (PKMTR)
aabbcc
Your satellite tracking list
Your tracking list is empty




NASA's NSSDC Master Catalog

Two Line Element Set (TLE):
1 14240U 83079A   19321.90814847 +.00000013 +00000-0 +14123-4 0  9994
2 14240 074.0554 124.5648 0014909 278.6853 232.7535 14.33898961897205
Source of the keplerian elements: AFSPC